Regional Weather Roundup
Issued by NWS

Home | Current Version | Previous Version | Graphics & Text | Print | Product List | Glossary On
Versions: 1 2 3 4 5 6 7 8 9 10 11 12 13 14 15 16 17 18 19 20 21 22 23 24 25 26 27 28 29 30 31 32 33 34 35 36 37 38 39 40 41 42 43 44 45 46 47 48 49 50
411
ASUS43 KMKX 090700
RWRWI

WISCONSIN REGIONAL WEATHER ROUNDUP
NATIONAL WEATHER SERVICE MILWAUKEE/SULLIVAN WI
100 AM CST FRI DEC 09 2016

NOTE: "FAIR" INDICATES FEW OR NO CLOUDS BELOW 12,000 FEET WITH NO
SIGNIFICANT WEATHER AND/OR OBSTRUCTIONS TO VISIBILITY.

WIZ001-002-006>008-014>016-023>028-090800-
NORTHWEST WISCONSIN

CITY           SKY/WX    TMP DP  RH WIND       PRES   REMARKS
SUPERIOR ARPT  CLEAR     14   7  75 W12       30.49R WCI   0
ASHLAND        PTCLDY    14   8  77 NW7       30.43S WCI   4
HAYWARD        CLOUDY    16   8  71 VRB5      30.42R WCI   9
SIREN          CLOUDY    14  10  82 NW7       30.48R WCI   4
CUMBERLAND     CLEAR     14   9  79 NW9       30.44R WCI   2
RICE LAKE      CLEAR     15  10  80 W8        30.46R WCI   5
CHETEK         PTCLDY    15  11  82 NW5       30.45S WCI   8
LADYSMITH      CLOUDY    19  13  77 NW14      30.41S WCI   6
EAU CLAIRE     NOT AVBL
MENOMONIE      CLEAR     18  13  84 W7        30.47R WCI   8
NEW RICHMOND   FLURRIES  18  12  79 NW7       30.49S WCI   8
OSCEOLA        CLEAR     17  12  82 W8        30.53R WCI   6
$$

WIZ003>005-009-010-017-018-090800-
NORTH CENTRAL WISCONSIN

CITY           SKY/WX    TMP DP  RH WIND       PRES   REMARKS
MANITOWISH WTR LGT SNOW  16  15  96 NW7       30.31S VSB 1   WCI   6
ARBOR VITAE    LGT SNOW  19  15  83 NW9       30.31R WCI   8
WOODRUFF       LGT SNOW  19  15  83 NW9       30.31R WCI   8
RHINELANDER    CLOUDY    19  12  74 NW10      30.31R WCI   7
EAGLE RIVER    FLURRIES  17  12  81 N6        30.29S WCI   8
LAND O LAKES   CLOUDY    16  11  80 NW5       30.31R WCI   9
PHILLIPS       MOCLDY    17  11  80 NW5       30.35S WCI  10
TOMAHAWK       CLOUDY    18  11  75 NW7       30.33S WCI   9
MEDFORD        CLOUDY    18  12  77 NW8       30.34F WCI   8
MERRILL        CLOUDY    19  15  84 W6        30.35S WCI  11
$$

WIZ029-030-035-036-043>047-090800-
CENTRAL WISCONSIN

CITY           SKY/WX    TMP DP  RH WIND       PRES   REMARKS
WAUSAU         FLURRIES  18  14  84 W8        30.35R WCI   8
MOSINEE        MOCLDY    18  14  86 W8        30.37R WCI   7
MARSHFIELD     CLOUDY    17  10  74 W8        30.37R WCI   7
STEVENS POINT  CLEAR     18  12  77 W3        30.38R
WAUPACA        CLEAR     22  15  74 CALM      30.39R
WAUTOMA        PTCLDY    21  14  74 NW9       30.40R WCI  11
WISC RAPIDS    CLEAR     18  12  77 W7        30.40S WCI   9
CAMP DOUGLAS   NOT AVBL
$$

WIZ011>013-019>022-031-037>040-048>050-090800-
NORTHEAST WISCONSIN

CITY           SKY/WX    TMP DP  RH WIND       PRES   REMARKS
ANTIGO         CLOUDY    16  13  88 NW9       30.31S WCI   4
SHAWANO        CLEAR     22  15  74 W5        30.36R WCI  16
OCONTO         PTCLDY    20  14  79 W5        30.34S WCI  13
STURGEON BAY   CLEAR     24  15  68 NW15G22   30.32R WCI  11
GREEN BAY      CLEAR     24  16  71 W12       30.35S WCI  13
MANITOWOC      NOT AVBL
APPLETON       CLEAR     19  12  73 W7        30.34S WCI  10
CLINTONVILLE   CLEAR     21  14  73 W7        30.36S WCI  13
OSHKOSH        CLEAR     20  14  77 W7        30.37R WCI  11
$$

WIZ032>034-041-042-053>061-090800-
SOUTHWEST WISCONSIN

CITY           SKY/WX    TMP DP  RH WIND       PRES   REMARKS
LA CROSSE      CLOUDY    24  15  68 NW13      30.48R WCI  12
SPARTA         FLURRIES  22  18  83 W6        30.45S WCI  14
VIROQUA        CLOUDY    20  16  86 W7        30.43R WCI  11
BOSCOBEL       CLOUDY    23  16  74 W7        30.48S WCI  15
PRAIRIE DU CHI FLURRIES  21  14  73 W9        30.50S WCI  10
PLATTEVILLE    CLOUDY    20  17  87 NW12G18   30.45S WCI   8
$$

WIZ056-057-062-063-064-067-068-090800-
SOUTH CENTRAL WISCONSIN

CITY           SKY/WX    TMP DP  RH WIND       PRES   REMARKS
REEDSBURG      FLURRIES  22  18  83 W10       30.42R WCI  11
BARABOO/DELLS  FLURRIES  22  17  81 W8        30.41R WCI  13
LONE ROCK      NOT AVBL
MINERAL POINT  FLURRIES  23  19  86 W10       30.42S WCI  12
MADISON        CLOUDY    22  17  81 W8        30.41R WCI  12
MIDDLETON      CLOUDY    24  19  81 W10       30.42R WCI  13
WATERTOWN      CLEAR     19  16  91 W5        30.39R WCI  12
MONROE         CLOUDY    21  18  86 W12       30.41S WCI   9
JANESVILLE     CLOUDY    23  19  86 W8        30.42R WCI  14
$$

WIZ051-052-058>065-066-070>072-090800-
SOUTHEAST WISCONSIN

CITY           SKY/WX    TMP DP  RH WIND       PRES   REMARKS
MILWAUKEE      MOCLDY    24  15  68 NW10      30.38R WCI  14
WAUKESHA       PTCLDY    21  18  86 W12       30.38S WCI   9
MILWAUKEE/TIMM PTCLDY    23  14  68 NW13G18   30.38R WCI  11
RACINE         CLOUDY    24  15  68 W9        30.40R WCI  14
BURLINGTON     CLOUDY    27  23  84 W9G17     30.39S WCI  18
KENOSHA        PTCLDY    20  15  81 W7        30.39R WCI  11
FOND DU LAC    CLEAR     21  13  71 W9        30.38R WCI  11
SHEBOYGAN      CLEAR     23  14  68 NW13      30.36R WCI  11
WEST BEND      MOCLDY    23  18  80 NW10      30.36R WCI  12
JUNEAU         CLEAR     19  14  79 W3        30.40R
$$

LSZ147-162-090800-
LAKE SUPERIOR

STATION/POSITION TIME  TEMP    WIND        PRES    WAVE
                       AIR SEA DIR/SP/G            HT/PER
                 (UTC) (F)     (DEG/KT/KT) (MB)    (FT/S)
DEVILS ISLAND    0600   21     320/ 15/ 19 1031.3R
PORT WING        0630   21     340/ 16/ 20 1030.8S
SAXON HARBOR     0630   23     330/ 18/ 23 1029.5S
$$

LMZ867-665-643>646-090800-
LAKE MICHIGAN

STATION/POSITION TIME  TEMP    WIND        PRES    WAVE
                       AIR SEA DIR/SP/G            HT/PER
                 (UTC) (F)     (DEG/KT/KT) (MB)    (FT/S)
CHAMBERS ISLAND  0640   24     290/ 10/ 18 1026.1R
NORTHPORT PIER   0640   27     300/ 20/ 26 1025.7R
SISTER BAY       0550   28     320/ 26/ 30   N/A
ALGOMA LAKESHORE 0606          320/  8/ 11   N/A
KEWAUNEE LAKESHO 0630   24     310/  6/ 10 1026.4R
SHEBOYGAN LAKESH 0600   24     290/ 14/ 19 1028.5R
PORT WASHINGTON  0640   24     300/  8/ 12 1029.1R
MILWAUKEE LAKESH 0620   25     300/ 11/ 13   N/A
KENOSHA   LAKESH 0600   23     280/ 13/ 16 1028.4
$$

TC  - TEMPERATURE IN CELSIUS
VSB - VISIBILITY IN STATUTE MILES
WCI - WIND CHILL INDEX
HX  - HEAT INDEX





USA.gov is the U.S. government's official web portal to all federal, state and local government web resources and services.